Olympia, WA
on Thursday, December 27, 2012

Thursday
Previous Day Next Day
Daily Summary
 ActualAverageRecord
Temperature
Mean Temperature °F 38°F  
Max Temperature 47°F 44°F 58°F (1980)
Min Temperature 36°F 33°F 16°F (1977)
Degree Days
Heating Degree Days 23 27  
Month to date heating degree days 659 718  
Since 1 July heating degree days 2046 2163  
Cooling Degree Days 0 0  
Month to date cooling degree days 0 0  
Year to date cooling degree days 82 106  
Moisture
Dew Point 39°F   
Average Humidity 92    
Maximum Humidity 100    
Minimum Humidity 83    
Precipitation
Precipitation 0.02 in 0.23 in 2.94 in (1949)
Month to date precipitation 9.58 6.56  
Year to date precipitation 59.43 49.10  
Wind
Wind Speed 7 mph   
Max Wind Speed 15 mph   
Max Gust Speed 19 mph   
Visibility 10 miles   
Events Rain   

Key: T is trace of precipitation, MM is missing value
Source: NWS Daily Summary
Time(PST)TemperatureDew PointHumidity Pressure Visibility Wind DirectionWind SpeedGust SpeedPrecipitationEvents Conditions
12:47 AM 41.0°F 39.0°F 93% 29.95 in 9.0 miles SSW 9.2 mph - 0.00 in   Overcast
12:54 AM 41.0°F 39.0°F 93% 29.96 in 10.0 miles SSW 11.5 mph - 0.00 in   Overcast
1:54 AM 41.0°F 39.0°F 93% 29.99 in 10.0 miles SSW 11.5 mph - N/A   Overcast
2:54 AM 41.0°F 39.0°F 93% 30.00 in 10.0 miles SSW 12.7 mph - N/A   Overcast
3:12 AM 41.0°F 39.0°F 93% 30.00 in 10.0 miles SSW 13.8 mph - N/A   Overcast
3:54 AM 41.0°F 39.0°F 93% 30.01 in 10.0 miles South 9.2 mph - N/A   Overcast
4:54 AM 41.0°F 39.9°F 96% 30.02 in 10.0 miles SSW 10.4 mph - N/A   Overcast
5:14 AM 42.1°F 39.9°F 92% 30.02 in 10.0 miles SSW 11.5 mph - N/A   Overcast
5:22 AM 42.1°F 39.9°F 92% 30.03 in 10.0 miles SSW 11.5 mph - N/A   Overcast
5:54 AM 42.1°F 39.9°F 92% 30.04 in 10.0 miles SSW 9.2 mph - N/A   Overcast
6:54 AM 41.0°F 39.9°F 96% 30.06 in 10.0 miles SSW 8.1 mph - N/A   Overcast
7:38 AM 41.0°F 39.0°F 93% 30.07 in 10.0 miles SSW 8.1 mph - N/A   Overcast
7:54 AM 41.0°F 39.0°F 93% 30.08 in 10.0 miles SSW 9.2 mph - N/A   Overcast
8:54 AM 42.1°F 39.0°F 89% 30.10 in 10.0 miles SSW 9.2 mph - N/A   Overcast
9:54 AM 43.0°F 39.9°F 89% 30.12 in 10.0 miles South 10.4 mph - N/A   Mostly Cloudy
10:03 AM 43.0°F 39.9°F 89% 30.12 in 10.0 miles South 10.4 mph - N/A   Mostly Cloudy
10:28 AM 44.1°F 39.9°F 85% 30.13 in 10.0 miles SSW 8.1 mph - N/A   Scattered Clouds
10:54 AM 44.1°F 39.9°F 85% 30.13 in 10.0 miles SSW 11.5 mph - N/A   Mostly Cloudy
11:54 AM 44.1°F 39.9°F 85% 30.14 in 10.0 miles SSW 10.4 mph - N/A   Overcast
12:54 PM 45.0°F 39.9°F 82% 30.14 in 4.0 miles Variable 3.5 mph - 0.01 in Rain Light Rain
1:54 PM 46.0°F 39.9°F 79% 30.13 in 10.0 miles WSW 4.6 mph - 0.01 in   Mostly Cloudy
2:54 PM 44.1°F 37.0°F 76% 30.15 in 9.0 miles West 6.9 mph - 0.00 in Rain Light Rain
3:54 PM 43.0°F 37.9°F 82% 30.15 in 10.0 miles WNW 3.5 mph - 0.00 in   Scattered Clouds
4:54 PM 39.9°F 36.0°F 86% 30.16 in 10.0 miles South 4.6 mph - N/A   Partly Cloudy
5:54 PM 39.9°F 37.9°F 93% 30.17 in 10.0 miles SSW 5.8 mph - N/A   Overcast
6:54 PM 39.2°F 37.4°F 93% 30.16 in 10.0 miles SW 3.5 mph - N/A   Mostly Cloudy
7:54 PM 39.0°F 37.0°F 93% 30.16 in 10.0 miles SW 4.6 mph - N/A   Mostly Cloudy
8:54 PM 37.9°F 37.0°F 97% 30.15 in 9.0 miles SW 3.5 mph - N/A   Overcast
9:54 PM 37.9°F 37.0°F 97% 30.16 in 10.0 miles SW 4.6 mph - N/A   Mostly Cloudy
10:54 PM 37.0°F 36.0°F 96% 30.16 in 9.0 miles SSW 3.5 mph - N/A   Mostly Cloudy
11:54 PM 37.0°F 36.0°F 96% 30.16 in 10.0 miles WSW 3.5 mph - N/A   Overcast
Moon Phase
Dec. 27 Dec. 28 Jan. 04 Jan. 11 Jan. 18
Sunrise:07:56 AM (PST) Moon Rise:04:19 PM (PST)12/27
Sunset:04:29 PM (PST) Moon Set:07:09 AM (PST)12/27

Copyright © 2014 The Weather Underground, Inc.